KB7STN Weather Reports


Display with metric or nautical units.
time (UTC)temp
F
wind
direction
speed
MPH
gust
MPH
rain 1hr
in
rain 24hr
in
rain mn
in
humidity
%
barometer
mb
20260831160524 74 232 1.0 5.0 0.00 0.00 0.00 49 1021.2
20260831160024 74 234 1.0 6.0 0.00 0.00 0.00 50 1021.2
20260831155524 73 236 0.0 2.0 0.00 0.00 0.00 50 1021.2
20260831155024 73 236 0.0 0.0 0.00 0.00 0.00 49 1021.2
20260831154525 73 236 0.0 3.0 0.00 0.00 0.00 50 1021.3
20260831154024 73 236 0.0 0.0 0.00 0.00 0.00 50 1021.4
20260831153524 73 236 0.0 3.0 0.00 0.00 0.00 49 1021.5
20260831153024 73 236 0.0 2.0 0.00 0.00 0.00 48 1021.6
20260831152524 73 236 0.0 3.0 0.00 0.00 0.00 49 1021.7
20260831152024 72 236 0.0 0.0 0.00 0.00 0.00 49 1021.7
20260831151524 72 236 0.0 0.0 0.00 0.00 0.00 50 1021.6
20260831151025 72 236 0.0 0.0 0.00 0.00 0.00 52 1021.7
20260831150524 71 236 0.0 0.0 0.00 0.00 0.00 52 1021.9
20260831150024 71 236 0.0 4.0 0.00 0.00 0.00 51 1022.0
20260831145525 71 235 0.0 2.0 0.00 0.00 0.00 51 1022.1
20260831145025 71 235 0.0 0.0 0.00 0.00 0.00 52 1022.0
20260831144525 71 235 0.0 0.0 0.00 0.00 0.00 52 1022.0
20260831143633 70 235 0.0 0.0 0.00 0.00 0.00 53 1022.0
20260831143133 70 235 0.0 0.0 0.00 0.00 0.00 54 1022.1
20260831142633 69 235 0.0 0.0 0.00 0.00 0.00 53 1022.0
20260831142133 68 238 0.0 0.0 0.00 0.00 0.00 56 1022.1
20260831141633 68 238 0.0 0.0 0.00 0.00 0.00 56 1022.1
20260831141133 67 238 0.0 4.0 0.00 0.00 0.00 55 1022.0
20260831140633 67 190 0.0 0.0 0.00 0.00 0.00 57 1022.0
20260831140133 67 190 0.0 0.0 0.00 0.00 0.00 61 1022.0
20260831135633 66 190 0.0 0.0 0.00 0.00 0.00 61 1022.0
20260831135133 66 190 0.0 0.0 0.00 0.00 0.00 62 1022.0
20260831134633 65 190 0.0 0.0 0.00 0.00 0.00 61 1022.0
20260831134133 65 190 0.0 0.0 0.00 0.00 0.00 63 1022.0
20260831133633 64 191 0.0 0.0 0.00 0.00 0.00 63 1021.9
20260831133133 63 191 0.0 0.0 0.00 0.00 0.00 65 1021.8
20260831132633 62 191 0.0 0.0 0.00 0.00 0.00 66 1021.8
20260831132133 62 191 0.0 0.0 0.00 0.00 0.00 66 1021.8
20260831131633 62 191 0.0 0.0 0.00 0.00 0.00 67 1021.8
20260831131133 62 191 0.0 0.0 0.00 0.00 0.00 67 1021.8
20260831130633 61 191 0.0 0.0 0.00 0.00 0.00 67 1021.7
20260831130133 61 191 0.0 0.0 0.00 0.00 0.00 67 1021.7
20260831125633 61 191 0.0 0.0 0.00 0.00 0.00 67 1021.6
20260831125133 61 191 0.0 0.0 0.00 0.00 0.00 66 1021.6
20260831124633 61 191 0.0 0.0 0.00 0.00 0.00 66 1021.4
20260831124133 61 191 0.0 0.0 0.00 0.00 0.00 66 1021.6
20260831123633 62 191 0.0 0.0 0.00 0.00 0.00 65 1021.6
20260831123133 62 191 0.0 0.0 0.00 0.00 0.00 63 1021.6
20260831122633 63 191 0.0 0.0 0.00 0.04 0.00 62 1021.6
20260831122133 63 191 0.0 0.0 0.00 0.04 0.00 61 1021.6
20260831121633 64 191 0.0 0.0 0.00 0.04 0.00 61 1021.6
20260831121133 63 191 0.0 3.0 0.00 0.04 0.00 63 1021.6
20260831120633 62 189 0.0 3.0 0.00 0.04 0.00 65 1021.6
20260831120133 61 140 0.0 3.0 0.00 0.04 0.00 68 1021.6
20260831115633 59 103 0.0 2.0 0.00 0.04 0.00 72 1021.6
20260831115133 58 98 0.0 0.0 0.00 0.04 0.00 75 1021.7
20260831114633 58 98 0.0 0.0 0.00 0.04 0.00 75 1021.7
20260831114133 58 98 0.0 0.0 0.00 0.04 0.00 76 1021.8
20260831113633 58 98 0.0 0.0 0.00 0.04 0.00 76 1021.8
20260831113133 58 98 0.0 0.0 0.00 0.04 0.00 74 1021.9
20260831112633 58 98 0.0 0.0 0.00 0.04 0.00 75 1021.9
20260831112133 59 98 0.0 0.0 0.00 0.04 0.00 76 1021.9
20260831111633 59 98 0.0 0.0 0.00 0.04 0.00 76 1021.8
20260831111133 59 98 0.0 0.0 0.00 0.04 0.00 75 1021.9
20260831110633 59 98 0.0 0.0 0.00 0.04 0.00 75 1021.9
20260831110133 59 98 0.0 0.0 0.00 0.04 0.00 73 1021.9
20260831105633 58 98 0.0 0.0 0.00 0.04 0.00 73 1021.8
20260831105133 58 98 0.0 0.0 0.00 0.04 0.00 75 1021.7
20260831104633 58 98 0.0 0.0 0.00 0.04 0.00 75 1021.7
20260831104133 58 98 0.0 0.0 0.00 0.04 0.00 74 1021.7
20260831103633 58 98 0.0 0.0 0.00 0.04 0.00 75 1021.7
20260831103134 58 98 0.0 0.0 0.00 0.04 0.00 74 1021.7
20260831102633 58 98 0.0 0.0 0.00 0.04 0.00 74 1021.6
20260831102133 59 98 0.0 0.0 0.00 0.04 0.00 72 1021.7
20260831101633 59 98 0.0 0.0 0.00 0.04 0.00 72 1021.7
20260831101133 59 98 0.0 0.0 0.00 0.04 0.00 71 1021.7
20260831100634 59 98 0.0 0.0 0.00 0.04 0.00 71 1021.5
20260831100134 60 98 0.0 0.0 0.00 0.04 0.00 71 1021.4
20260831095634 60 98 0.0 0.0 0.00 0.04 0.00 71 1021.4
20260831095134 60 98 0.0 0.0 0.00 0.04 0.00 70 1021.3
20260831094634 60 98 0.0 0.0 0.00 0.04 0.00 70 1021.3
20260831094134 60 98 0.0 0.0 0.00 0.04 0.00 69 1021.3
20260831093634 60 98 0.0 0.0 0.00 0.04 0.00 69 1021.4
20260831093134 60 98 0.0 0.0 0.00 0.04 0.00 69 1021.4
20260831092634 61 98 0.0 0.0 0.00 0.04 0.00 69 1021.3
20260831092134 61 98 0.0 0.0 0.00 0.04 0.00 69 1021.3
20260831091634 61 98 0.0 0.0 0.00 0.04 0.00 69 1021.3
20260831091134 61 98 0.0 0.0 0.00 0.04 0.00 69 1021.2
20260831090634 61 98 0.0 0.0 0.00 0.04 0.00 68 1021.2
20260831090134 61 98 0.0 0.0 0.00 0.04 0.00 68 1021.1
20260831085634 61 98 0.0 0.0 0.00 0.04 0.00 67 1021.2
20260831085134 61 98 0.0 0.0 0.00 0.04 0.00 68 1021.1
20260831084634 61 98 0.0 0.0 0.00 0.04 0.00 68 1021.1
20260831084134 62 98 0.0 0.0 0.00 0.04 0.00 68 1021.0
20260831083636 61 98 0.0 0.0 0.00 0.04 0.00 68 1021.2
20260831083134 62 98 0.0 0.0 0.00 0.04 0.00 68 1021.1
20260831082634 61 98 0.0 0.0 0.00 0.04 0.00 68 1021.1
20260831082134 61 98 0.0 0.0 0.00 0.04 0.00 68 1021.1
20260831081634 61 98 0.0 0.0 0.00 0.04 0.00 69 1021.2
20260831081134 61 98 0.0 0.0 0.00 0.04 0.00 69 1021.2
20260831080634 61 98 0.0 0.0 0.00 0.04 0.00 69 1021.2
20260831080134 61 98 0.0 0.0 0.00 0.04 0.00 69 1021.2
20260831075134 61 98 0.0 0.0 0.00 0.04 0.00 68 1021.2
20260831074634 61 98 0.0 0.0 0.00 0.04 0.00 68 1021.3
20260831074134 62 98 0.0 0.0 0.00 0.04 0.00 68 1021.3
20260831073634 62 98 0.0 0.0 0.00 0.04 0.00 68 1021.3
20260831073134 62 98 0.0 0.0 0.00 0.04 0.00 67 1021.3
20260831072634 62 98 0.0 0.0 0.00 0.04 0.00 67 1021.4
20260831072134 62 98 0.0 0.0 0.00 0.04 0.00 68 1021.5
20260831071634 62 98 0.0 0.0 0.00 0.04 0.00 67 1021.5
20260831071134 62 98 0.0 0.0 0.00 0.04 0.00 67 1021.4
20260831070634 62 98 0.0 0.0 0.00 0.04 0.00 66 1021.5
20260831070134 62 98 0.0 0.0 0.00 0.04 0.00 66 1021.4
20260831065634 62 98 0.0 0.0 0.00 0.04 0.00 66 1021.4
20260831065134 62 98 0.0 0.0 0.00 0.04 0.00 66 1021.4
20260831064634 63 98 0.0 0.0 0.00 0.04 0.00 65 1021.4
20260831064134 63 98 0.0 0.0 0.00 0.04 0.00 64 1021.3
20260831063634 63 98 0.0 0.0 0.00 0.04 0.00 64 1021.3
20260831063134 63 98 0.0 0.0 0.00 0.04 0.00 64 1021.3
20260831062634 63 98 0.0 0.0 0.00 0.04 0.00 64 1021.3
20260831062134 63 98 0.0 0.0 0.00 0.04 0.00 64 1021.3
20260831061634 63 98 0.0 0.0 0.00 0.04 0.00 64 1021.4
20260831061134 63 98 0.0 0.0 0.00 0.04 0.00 64 1021.3
20260831060634 63 98 0.0 0.0 0.00 0.04 0.00 63 1021.3
20260831060134 63 98 0.0 0.0 0.00 0.04 0.00 63 1021.4
20260831055634 63 98 0.0 0.0 0.00 0.04 0.04 65 1021.4
20260831055134 63 98 0.0 0.0 0.00 0.04 0.04 65 1021.3
20260831054634 63 98 0.0 0.0 0.00 0.04 0.04 65 1021.4
20260831054134 63 98 0.0 0.0 0.00 0.04 0.04 66 1021.4
20260831053634 63 98 0.0 0.0 0.00 0.04 0.04 66 1021.4
20260831053134 63 98 0.0 0.0 0.00 0.04 0.04 67 1021.4
20260831052634 63 98 0.0 0.0 0.00 0.05 0.04 67 1021.3
20260831052134 63 98 0.0 0.0 0.00 0.05 0.04 67 1021.4
20260831051634 63 98 0.0 0.0 0.00 0.05 0.04 66 1021.4
20260831051134 64 98 0.0 0.0 0.00 0.05 0.04 66 1021.4
20260831050634 64 98 0.0 0.0 0.00 0.05 0.04 66 1021.4
20260831050134 64 98 0.0 0.0 0.00 0.05 0.04 66 1021.4
20260831045634 65 98 0.0 0.0 0.00 0.05 0.04 65 1021.3
20260831045134 65 98 0.0 0.0 0.00 0.05 0.04 64 1021.2
20260831044634 65 98 0.0 0.0 0.00 0.05 0.04 64 1021.3
20260831044134 65 98 0.0 0.0 0.00 0.05 0.04 63 1021.2
20260831043634 65 98 0.0 0.0 0.00 0.05 0.04 64 1021.1
20260831043134 65 98 0.0 0.0 0.00 0.05 0.04 64 1021.0
20260831042634 65 98 0.0 0.0 0.00 0.13 0.04 64 1021.0
20260831042134 65 98 0.0 0.0 0.00 0.13 0.04 64 1021.0
20260831041634 65 98 0.0 0.0 0.00 0.13 0.04 64 1021.0
20260831041134 65 98 0.0 0.0 0.00 0.13 0.04 64 1021.0
20260831040634 65 98 0.0 0.0 0.00 0.13 0.04 63 1021.1
20260831040134 65 98 0.0 0.0 0.00 0.13 0.04 63 1021.1
20260831035634 65 98 0.0 0.0 0.00 0.13 0.04 63 1021.1
20260831035134 65 98 0.0 0.0 0.00 0.13 0.04 63 1020.9
20260831034634 66 98 0.0 0.0 0.00 0.13 0.04 63 1020.9
20260831034134 66 98 0.0 0.0 0.00 0.13 0.04 63 1020.9
20260831033634 66 98 0.0 0.0 0.00 0.13 0.04 62 1020.9
20260831033134 66 98 0.0 0.0 0.00 0.13 0.04 62 1020.9
20260831032634 66 98 0.0 0.0 0.00 0.15 0.04 63 1020.8
20260831032134 66 98 0.0 0.0 0.00 0.15 0.04 63 1020.8
20260831031634 66 98 0.0 0.0 0.00 0.15 0.04 63 1020.9
20260831031134 66 98 0.0 0.0 0.00 0.15 0.04 63 1020.9
20260831030634 66 98 0.0 0.0 0.00 0.15 0.04 63 1020.8
20260831030134 66 98 0.0 0.0 0.00 0.15 0.04 63 1020.7
20260831025634 66 98 0.0 0.0 0.00 0.15 0.04 62 1020.7
20260831025134 67 98 0.0 0.0 0.00 0.15 0.04 62 1020.6
20260831024634 67 98 0.0 0.0 0.00 0.15 0.04 62 1020.7
20260831024134 67 98 0.0 0.0 0.00 0.15 0.04 61 1020.6
20260831023634 68 98 0.0 0.0 0.00 0.15 0.04 61 1020.5
20260831023134 68 98 0.0 0.0 0.00 0.15 0.04 61 1020.6
20260831022634 68 98 0.0 0.0 0.00 0.15 0.04 60 1020.5
20260831022134 69 98 0.0 0.0 0.00 0.15 0.04 60 1020.6
20260831021634 69 98 0.0 0.0 0.00 0.15 0.04 59 1020.5
20260831021134 70 98 0.0 0.0 0.00 0.15 0.04 58 1020.5
20260831020634 70 98 0.0 0.0 0.00 0.15 0.04 57 1020.5
20260831020134 71 98 0.0 0.0 0.00 0.15 0.04 56 1020.4
20260831015634 71 98 0.0 0.0 0.00 0.15 0.04 55 1020.3
20260831015134 71 98 0.0 0.0 0.00 0.15 0.04 54 1020.4
20260831014634 71 98 0.0 0.0 0.00 0.15 0.04 52 1020.4
20260831014134 72 98 0.0 0.0 0.00 0.15 0.04 52 1020.4
20260831013634 72 98 0.0 0.0 0.00 0.15 0.04 52 1020.3
20260831013134 72 98 0.0 0.0 0.00 0.15 0.04 52 1020.4
20260831012634 72 98 0.0 0.0 0.00 0.15 0.04 51 1020.3
20260831012134 73 98 0.0 0.0 0.00 0.15 0.04 52 1020.4
20260831011634 73 98 0.0 0.0 0.00 0.15 0.04 51 1020.4
20260831011134 73 98 0.0 0.0 0.00 0.15 0.04 50 1020.4
20260831010634 73 98 0.0 0.0 0.00 0.15 0.04 51 1020.4
20260831010134 74 98 0.0 3.0 0.00 0.15 0.04 50 1020.4
20260831005634 74 98 0.0 3.0 0.00 0.15 0.04 51 1020.4
20260831005134 74 99 0.0 0.0 0.00 0.15 0.04 50 1020.4
20260831004634 74 99 0.0 3.0 0.00 0.15 0.04 49 1020.4
20260831004134 74 105 0.0 3.0 0.00 0.15 0.04 50 1020.5
20260831003634 75 105 0.0 2.0 0.00 0.15 0.04 49 1020.5
20260831003134 75 105 0.0 3.0 0.00 0.15 0.04 49 1020.5
20260831002634 75 105 0.0 0.0 0.00 0.25 0.04 49 1020.4
20260831002134 75 105 0.0 7.0 0.00 0.25 0.04 49 1020.5
20260831001634 75 106 0.0 1.0 0.00 0.25 0.04 47 1020.5
20260831001134 75 106 0.0 0.0 0.00 0.25 0.04 47 1020.5
20260831000635 75 106 0.0 4.0 0.00 0.25 0.04 47 1020.5
20260831000134 75 107 0.0 3.0 0.00 0.25 0.04 47 1020.6
20260830235634 75 107 0.0 0.0 0.00 0.25 0.04 46 1020.4
20260830235135 75 107 0.0 0.0 0.00 0.25 0.04 46 1020.4
20260830234634 75 107 0.0 1.0 0.00 0.25 0.04 46 1020.5
20260830234135 76 107 0.0 2.0 0.00 0.25 0.04 46 1020.5
20260830233635 76 107 0.0 5.0 0.00 0.25 0.04 45 1020.5
20260830233135 76 121 0.0 4.0 0.00 0.25 0.04 45 1020.7
20260830232635 76 141 0.0 0.0 0.00 0.25 0.04 47 1020.7
20260830232135 76 141 0.0 3.0 0.00 0.25 0.04 48 1020.7
20260830231635 76 146 0.0 0.0 0.00 0.25 0.04 50 1020.7
20260830231135 76 146 0.0 3.0 0.00 0.25 0.04 47 1020.7
20260830230635 76 146 1.0 2.0 0.00 0.25 0.04 51 1020.7
20260830230135 76 146 1.0 3.0 0.00 0.25 0.04 51 1020.8
20260830225635 75 148 0.0 2.0 0.00 0.25 0.04 51 1020.8
20260830225135 75 148 0.0 2.0 0.00 0.25 0.04 46 1021.0
20260830224635 75 148 1.0 4.0 0.00 0.25 0.04 45 1020.8
20260830224135 75 171 0.0 2.0 0.00 0.25 0.04 46 1020.8
20260830223635 75 172 0.0 2.0 0.00 0.25 0.04 44 1020.9
20260830223135 75 172 0.0 0.0 0.00 0.25 0.04 44 1020.9
20260830222635 75 172 0.0 2.0 0.00 0.29 0.04 43 1020.9
20260830222135 75 172 0.0 2.0 0.00 0.29 0.04 43 1020.9
20260830221635 75 172 0.0 3.0 0.00 0.29 0.04 42 1020.9
20260830221135 75 172 1.0 3.0 0.00 0.29 0.04 44 1020.8
20260830220635 75 172 1.0 4.0 0.00 0.29 0.04 44 1020.7
20260830220135 75 173 1.0 4.0 0.00 0.29 0.04 45 1020.8
20260830215635 75 173 1.0 3.0 0.00 0.29 0.04 46 1021.0
20260830215135 75 173 2.0 4.0 0.00 0.29 0.04 46 1020.9
20260830214635 76 166 2.0 6.0 0.00 0.29 0.04 46 1020.8
20260830214135 77 173 2.0 6.0 0.00 0.29 0.04 45 1020.6
20260830213635 77 204 2.0 6.0 0.00 0.29 0.04 44 1020.7
20260830213135 78 165 1.0 5.0 0.00 0.29 0.04 44 1020.7
20260830212635 79 165 1.0 2.0 0.00 0.29 0.04 46 1020.6
20260830212135 79 165 1.0 4.0 0.00 0.29 0.04 49 1020.5
20260830211635 79 167 1.0 6.0 0.00 0.29 0.04 45 1020.5
20260830211135 78 198 1.0 3.0 0.00 0.29 0.04 48 1020.7
20260830210635 78 198 1.0 3.0 0.00 0.29 0.04 50 1020.8
20260830210135 77 194 2.0 3.0 0.00 0.29 0.04 49 1020.9
20260830205635 77 187 3.0 6.0 0.00 0.29 0.04 49 1020.9
20260830205135 77 171 3.0 6.0 0.00 0.29 0.04 49 1020.9
20260830204635 77 188 3.0 6.0 0.00 0.29 0.04 51 1021.0
20260830204135 78 192 2.0 4.0 0.00 0.29 0.04 51 1021.0
20260830203635 78 200 2.0 4.0 0.00 0.29 0.04 49 1021.2
20260830203135 79 200 2.0 4.0 0.00 0.29 0.04 48 1021.2
20260830202635 79 200 2.0 5.0 0.00 0.29 0.04 49 1021.3
20260830202135 79 202 2.0 5.0 0.00 0.29 0.04 49 1021.4
20260830201635 79 201 2.0 4.0 0.00 0.29 0.04 52 1021.2
20260830201135 78 204 2.0 4.0 0.00 0.29 0.04 52 1021.4
20260830200635 78 211 2.0 5.0 0.00 0.29 0.04 52 1021.4
20260830200135 77 225 2.0 6.0 0.00 0.29 0.04 52 1021.5
20260830195635 77 198 2.0 5.0 0.00 0.29 0.04 54 1021.5
20260830195135 77 198 2.0 4.0 0.00 0.29 0.04 55 1021.6
20260830194635 77 197 2.0 10.0 0.00 0.29 0.04 54 1021.7
20260830194135 77 198 2.0 5.0 0.00 0.29 0.04 54 1021.7
20260830193635 77 221 2.0 5.0 0.00 0.29 0.04 54 1021.7
20260830193135 76 193 2.0 4.0 0.00 0.29 0.04 54 1021.8
20260830192635 76 184 2.0 8.0 0.00 0.29 0.04 54 1021.8
20260830192135 76 198 2.0 4.0 0.00 0.29 0.04 57 1021.9
20260830191635 76 191 2.0 6.0 0.00 0.29 0.04 55 1022.0
20260830191135 76 201 1.0 6.0 0.00 0.29 0.04 55 1022.1
20260830190635 76 191 2.0 4.0 0.00 0.29 0.04 57 1022.1
20260830190135 75 167 2.0 7.0 0.00 0.29 0.04 57 1022.3
20260830185635 75 189 3.0 12.0 0.00 0.29 0.04 58 1022.3
20260830185135 75 182 3.0 8.0 0.00 0.29 0.04 59 1022.3
20260830184635 75 186 3.0 7.0 0.00 0.29 0.04 59 1022.3
20260830184135 75 212 2.0 10.0 0.00 0.29 0.04 58 1022.4
20260830183635 75 186 2.0 5.0 0.00 0.29 0.04 59 1022.4
20260830183135 74 174 3.0 6.0 0.00 0.29 0.04 59 1022.5
20260830182635 74 209 3.0 6.0 0.00 0.29 0.04 58 1022.6
20260830182135 74 214 3.0 12.0 0.00 0.29 0.04 58 1022.5
20260830181635 74 166 1.0 8.0 0.00 0.29 0.04 58 1022.5
20260830181135 74 186 1.0 4.0 0.00 0.29 0.04 57 1022.6
20260830180635 74 169 1.0 4.0 0.00 0.29 0.04 57 1022.6
20260830180135 74 176 1.0 5.0 0.00 0.29 0.04 57 1022.5
20260830175635 73 169 1.0 7.0 0.00 0.29 0.04 59 1022.5
20260830175135 73 169 1.0 7.0 0.00 0.29 0.04 61 1022.6
20260830174635 73 161 1.0 6.0 0.00 0.29 0.04 59 1022.7
20260830174135 73 161 1.0 6.0 0.00 0.29 0.04 59 1022.7
20260830173635 73 167 1.0 7.0 0.00 0.29 0.04 59 1022.7
20260830173135 72 201 0.0 0.0 0.00 0.29 0.04 58 1022.6
20260830172635 72 202 0.0 0.0 0.00 0.29 0.04 54 1022.6
20260830172135 71 202 0.0 0.0 0.00 0.29 0.04 56 1022.6
20260830171635 71 202 0.0 1.0 0.00 0.29 0.04 57 1022.5
20260830171135 71 202 0.0 0.0 0.00 0.29 0.04 57 1022.5
20260830170635 71 201 1.0 6.0 0.00 0.29 0.04 60 1022.5
20260830170135 70 205 0.0 5.0 0.00 0.29 0.04 60 1022.5
20260830165635 70 206 0.0 0.0 0.00 0.29 0.04 63 1022.5
20260830165135 70 206 0.0 0.0 0.00 0.29 0.04 63 1022.5
20260830164635 69 206 0.0 0.0 0.00 0.29 0.04 60 1022.4
20260830164135 69 206 0.0 2.0 0.00 0.29 0.04 63 1022.3
20260830163635 69 206 0.0 2.0 0.00 0.29 0.04 62 1022.3
20260830163135 69 206 0.0 0.0 0.00 0.29 0.04 63 1022.3
20260830162635 69 206 0.0 3.0 0.00 0.54 0.04 66 1022.2
20260830162135 68 205 0.0 0.0 0.00 0.54 0.04 64 1021.9
20260830161635 67 205 0.0 0.0 0.00 0.54 0.04 67 1022.0
20260830161135 67 205 0.0 0.0 0.00 0.54 0.04 70 1022.1
20260830160635 66 205 0.0 0.0 0.00 0.54 0.04 71 1022.2